Regional Weather Roundup
Issued by NWS Jackson, KY

Home | Current Version | Previous Version | Text Only | Print | Product List | Glossary Off
Versions: 1 2 3 4 5 6 7 8 9 10 11 12 13 14 15 16 17 18 19 20 21 22 23 24 25 26 27 28 29 30 31 32 33 34 35 36 37 38 39 40 41 42 43 44 45 46 47 48 49 50

000
ASUS43 KJKL 231605
RWRJKL

EAST KENTUCKY HOURLY WEATHER ROUNDUP
NATIONAL WEATHER SERVICE JACKSON KY
1200 PM EDT SAT AUG 23 2014

NOTE: "FAIR" INDICATES FEW OR NO CLOUDS BELOW 12,000 FEET WITH
NO SIGNIFICANT WEATHER AND/OR OBSTRUCTIONS TO VISIBILITY.

* THESE REPORTS ARE NOT UNDER NWS QUALITY CONTROL AND MAY NOT
  REPORT WEATHER SUCH AS PRECIPITATION AND FOG.

KYZ079-080-083-085-087-088-110-112-115-119-120-231700
...EASTERN KENTUCKY...

CITY           SKY/WX    TMP DP  RH WIND       PRES   REMARKS
JACKSON        PTSUNNY   78  73  84 CALM      30.07S
LONDON         PTSUNNY   84  71  65 CALM      30.06S
SOMERSET*      MOSUNNY   82  70  65 CALM      30.06S
MONTICELLO*    SUNNY     86  73  64 CALM      30.06S HX  93
WILLIAMSBURG*  MOSUNNY   82  73  74 CALM      30.06
MIDDLESBORO*   PTSUNNY   83  72  68 CALM      30.06S
HARLAN APT*    PTSUNNY   82  68  61 MISG      30.07S
BLACK MTN*       N/A     70  68  94 NE3         N/A
PIKEVILLE APT* CLOUDY    73  72  94 W3        30.07S
BIG SANDY*     CLOUDY    76  72  87 CALM      30.06S
MOREHEAD APT*  PTSUNNY   77  73  88 N5        30.08R
$$

KYZ035-036-041-042-044-050-067-078-099-231700
...CENTRAL KENTUCKY...

CITY           SKY/WX    TMP DP  RH WIND       PRES   REMARKS
MT STERLING*   MOSUNNY   79  73  83 CALM      30.06S
FLEMING/MASON* MOSUNNY   78  72  80 CALM      30.06S
DANVILLE*      MOSUNNY   82  73  74 CALM      30.06S
RICHMOND*      PTSUNNY   81  72  74 CALM      30.05S
LEXINGTON      PTSUNNY   86  74  67 CALM      30.04S HX  94
FRANKFORT      SUNNY     84  74  71 CALM      30.02S HX  91
$$

KYZ091>093-OHZ055-061-077-WVZ005-015-034-035-042-231700
...SOUTHERN OHIO/WEST VIRGINIA...

CITY           SKY/WX    TMP DP  RH WIND       PRES   REMARKS
COVINGTON      PTSUNNY   84  71  65 CALM      30.03S
COLUMBUS       PTSUNNY   84  68  58 E5        30.02S
DAYTON         PTSUNNY   82  72  71 CALM      30.04R
WILMINGTON     MOSUNNY   81  71  71 CALM      30.03S
HUNTINGTON     CLOUDY    74  73  97 SW5       30.03R FOG
CHARLESTON     CLOUDY    77  72  84 CALM      30.03S HAZE
PINEVILLE*     CLOUDY    76  73  91 MISG      30.12S
BECKLEY        PTSUNNY   75  69  81 CALM      30.10S
BLUEFIELD      CLOUDY    73  68  84 SW6       30.13S
$$

VAZ002-007-008-TNZ017-027-036-066-071-231700
...SOUTHWEST VIRGINIA/EAST TENNESSEE...

CITY           SKY/WX    TMP DP  RH WIND       PRES   REMARKS
WISE*          CLOUDY    77  72  83 NW6       30.14S
JONESVILLE*      N/A     84  72  65 N3        30.08S
ABINGDON*      CLOUDY    79  73  80 NW3       30.09S
BRISTOL        PTSUNNY   81  69  67 CALM      30.06S
KNOXVILLE      PTSUNNY   85  72  65 CALM      30.03S HX  91
OAK RIDGE      MOSUNNY   87  71  58 CALM      30.05R HX  93
CROSSVILLE     MOSUNNY   80  73  79 W8        30.10F
NASHVILLE      PTSUNNY   89  71  55 CALM      30.03F HX  95
$$

...KEY TO REMARKS...
VSB - VISIBILITY IN MILES
WCI - WIND CHILL INDEX
HX  - HEAT INDEX

$$


USA.gov is the U.S. government's official web portal to all federal, state and local government web resources and services.